Location: Ostrava
(49.8330°N, 18.2830°E)
Time: 22:37:52
(UTC+01:00)

Cosmos 1263 Rocket - Visible Passes

Search period start: 28 November 2014 00:00
Search period end: 08 December 2014 00:00
Orbit: 312 x 534 km, 82.9° (Epoch: 27 November)

Date Brightness Start Highest point End Pass type
(mag) Time Alt. Az. Time Alt. Az. Time Alt. Az.
28 Nov 3.8 16:53:36 10° SW 16:57:15 37° WNW 17:00:57 10° N visible
29 Nov 5.4 17:46:40 10° WNW 17:47:44 11° WNW 17:48:47 10° NW visible
30 Nov 4.6 17:00:12 10° WSW 17:03:23 23° WNW 17:06:34 10° NNW visible
02 Dec 5.1 17:06:51 10° W 17:09:07 15° WNW 17:11:23 10° NNW visible
03 Dec 4.1 16:21:00 10° SW 16:24:33 32° WNW 16:28:04 10° N visible
05 Dec 4.7 16:26:36 10° WSW 16:29:33 20° WNW 16:32:28 10° NNW visible
07 Dec 5.0 16:32:18 10° W 16:34:09 13° WNW 16:35:58 10° NW visible
